GEESAT-3 04

Last updated on Wed Oct 02 2024 00:02:04 GMT+0000 (Coordinated Universal Time)

1 61014U 24159D 24274.96100799 .02668512 00000+0 14613+0 0 9996 2 61014 50.0117 120.1014 0026599 259.7459 197.8508 15.09872153 3810
UTC large
Height (km)
Speed (km/s)
/
Latitude / Longitude
Inclination (degrees)
Orbital Period (minutes)
Azimuth
Elevation
Range (km)
Doppler Factor

Next 0 passes for location: London (51.5072 / 0.1276)

Sorry there are no passes over London.